Location: Penton Mewsey
(51.2167°N, 1.5167°W)
Time: 23:15:58
(UTC+00:00)

Envisat - Pass Details

Date: 10 March 2021
Orbit: 764 x 766 km, 98.1° (Epoch: 22 April)

Event Time Altitude Azimuth Distance (km) Brightness Sun altitude
Rises 05:36:18 0° 17° (NNE) 3,247 6.6 -9.4°
Reaches altitude 10° 05:38:40 10° 21° (NNE) 2,316 5.8 -9.0°
Maximum altitude 05:43:42 58° 101° (E) 890 3.8 -8.2°
Drops below altitude 10° 05:48:42 10° 180° (S) 2,297 5.5 -7.5°
Sets 05:51:02 0° 185° (S) 3,219 6.2 -7.1°
